Вернуться в каталог

STARLINK-6158

АктивенСвязьVLEO
NORAD 56375·PAYLOAD·🇺🇸 United States

Запущен May 4, 2023 с Cape Canaveral Space Force Station

Loading…

Ближайшие Пролёты (ближайшие 24 часа)

TLE

СвежийSource: CelesTrak SupGP

Эпоха: Sep 14, 2026, 21:53 UTC

1 56375C 23061B   26257.91229167  .00003052  00000+0  11052-3 0  2575
2 56375  43.0021 209.0908 0001506 260.0341   2.9689 15.27584974    11

Отслеживайте STARLINK-6158 в реальном времени с AllMySat

Download on the App Store